Location: Unspecified
(0.0000°N, 0.0000°E)
Time: 17:11:16
(UTC+02:00)

GPS 2-12 Rocket1 - Visible Passes

Search period start: 28 June 2016 00:00
Search period end: 08 July 2016 00:00
Orbit: 587 x 654 km, 20.0° (Epoch: 28 June)

Date Brightness Start Highest point End Pass type
(mag) Time Alt. Az. Time Alt. Az. Time Alt. Az.
28 Jun 5.8 05:50:34 11° SE 05:50:34 11° SE 05:50:47 10° SE visible
28 Jun 5.2 07:28:17 10° SW 07:30:24 13° SSW 07:32:30 10° SSE visible
29 Jun 5.7 06:06:24 11° SSE 06:06:24 11° SSE 06:06:38 10° SSE visible
03 Jul 6.0 22:44:28 10° NNW 22:44:32 10° NNW 22:44:32 10° NNW visible
05 Jul 5.1 21:34:12 10° NNW 21:36:49 15° NNE 21:38:06 14° NE visible
06 Jul 4.6 21:49:49 10° NW 21:53:25 24° NNE 21:53:25 24° NNE visible
07 Jul 4.3 22:05:47 10° NW 22:08:46 33° NNW 22:08:46 33° NNW visible
